Regional Weather Roundup
Issued by NWS

Home | Current Version | Previous Version | Text Only | Print | Product List | Glossary Off
Versions: 1 2 3 4 5 6 7 8 9 10 11 12 13 14 15 16 17 18 19 20 21 22 23 24 25 26 27 28 29 30 31 32 33 34 35 36 37 38 39 40 41 42 43 44 45 46 47 48 49 50

000
ASUS45 KBOI 252010
RWRID
WEATHER ROUNDUP FOR IDAHO
NATIONAL WEATHER SERVICE BOISE ID
200 PM MDT FRI JUL 25 2014

NOTE: "FAIR" INDICATES FEW OR NO CLOUDS BELOW 12000 FEET
WITH NO SIGNIFICANT WEATHER AND/OR OBSTRUCTIONS TO VISIBILITY

IDZ012-014-252100-
SOUTHWEST IDAHO


CITY           SKY/WX    TMP DP  RH WIND       PRES   REMARKS
BOISE          SUNNY     79  37  22 W13       30.06S
CALDWELL       SUNNY     79  43  27 W8        30.08F
MOUNTAIN HOME  SUNNY     82  32  16 NW9G22    30.05F
$$

IDZ016-017-252100-
SOUTHCENTRAL IDAHO


CITY           SKY/WX    TMP DP  RH WIND       PRES   REMARKS
BURLEY         SUNNY     76  35  22 W9        30.09F
JEROME         SUNNY     76  37  24 W10       30.10F
TWIN FALLS     SUNNY     77  34  21 W12       30.11S
$$

IDZ019>023-252100-
SOUTHEAST IDAHO


CITY           SKY/WX    TMP DP  RH WIND       PRES   REMARKS
IDAHO FALLS    SUNNY     77  29  17 SW13      30.11F
POCATELLO      SUNNY     80  30  16 W13       30.11F
REXBURG        SUNNY     75  28  17 SW8       30.11F
$$

IDZ006-010-011-018-031-032-252100-
CENTRAL IDAHO MOUNTAINS


CITY           SKY/WX    TMP DP  RH WIND       PRES   REMARKS
MCCALL         SUNNY     70  34  26 MISG      30.13F
HAILEY         SUNNY     79  28  15 S14G21    30.12F
STANLEY          N/A     73  16  11 NW8       30.18F
SALMON         SUNNY     73  34  23 NW3       30.01F
CHALLIS        SUNNY     79  22  12 N7        30.05F
$$

IDZ002-004-006-007-026-252100-
NORTHERN IDAHO


CITY           SKY/WX    TMP DP  RH WIND       PRES   REMARKS
LEWISTON       SUNNY     77  43  29 N5        30.06F
LOWELL           N/A     80  44  27 VRB3      30.04F
COEUR D`ALENE  PTSUNNY   70  45  40 CALM      30.07S
MULLAN PASS    CLOUDY    54  40  59 VRB3      30.19R
$$


USA.gov is the U.S. government's official web portal to all federal, state and local government web resources and services.